Seymour Johnson Air Force Base
KGSB : rendu visible

Aérodrome :











RETROUVEZ-NOUS SUR...

 
LOGIN :

S'inscrire | Disclaimer

   EN    FR    IT 

 









Légende :    VFR   VFR Marginal   IFR   IFR Intensif   IFR Très Intensif
Visi : 
Plafond : 
>= 8 km
>= 3000ft
5 à 8 km
1000 à 3000 ft
1500m à 5 km
500 à 1000 ft
800 à 1500m
200 à 500 ft
< 800m
< 200 ft
Symboles :   Orages  Brouillard  Fortes neiges  Fortes précipitations  Vent > 20 kt






- Altitude de l'aérodrome : 109 ft


KGSB - Seymour Johnson Air Force Base

DERNIER METAR :
  • 100956Z AUTO 00000KT 10SM CLR 12/00 A2966 RMK AO2 SLP046 T01190000 $

METARs EXPIRÉS :
  • 100856Z AUTO 00000KT 10SM CLR 13/M02 A2965 RMK AO2 SLP043 T01261021 52011 $
  • 100756Z AUTO 33006KT 10SM CLR 14/M03 A2965 RMK AO2 SLP043 T01391034 $

TAF AMD TAF KGSB
Valide du 10 à 06h jusqu'au 11 à 10h UTC


100650Z 1006/1110 35009KT 9999 SKC QNH2963INS
BECMG 1011/1012 31015G32KT 9999 FEW250 500003 QNH2974INS
BECMG 1017/1018 30015G25KT 9999 SKC QNH2980INS TX17/1021Z TN09/1010Z



MET'MAP, la Météo Aéronautique d'un coup d'oeil ! - Copyright ORBIFLY Décembre 2007 - Disclaimer

ORBIFLY MET'MAP TEAM :

Programmation & Développement : Alexandra Zaïnal
Sur une idée originale de : Baudouin d'Aumeries
Assistance à la programmation : Marc-Olivier Méhu
Soutien technique & logistique : Manuel Goepfert

Contact : metmap@orbifly.com




SOURCES & CREDITS :

   NOAA       Earth
Advisory